Wind_Speed
6 11 15 16 14 23 26 22 23 13 15 8 15 17 22 30 21 22 24 24 18 19 23 17 22 22 22 18 13 13 12 5 5 7 8 7 5 6 3 2 5 4 4 4
8 11 19 17 17 17 15 22 22 15 11 9 15 19 18 25 28 24 23 23 16 17 23 16 10 22 20 10 7 12 9 6 6 6 8 10 12 5 3 8 3 5 4 3
15 12 13 9 12 17 17 2 7 11 19 21 17 10 8 17 20 23 25 19 15 19 23 17 13 14 15 7 5 11 9 9 8 8 8 10 2 8 6 6 2 2 1 2
13 16 14 14 17 14 8 7 3 2 10 12 5 6 8 15 18 13 22 24 19 20 25 19 15 18 16 8 5 8 9 10 8 7 8 8 8 6 5 5 6 4 4 3
19 12 26 21 13 15 16 11 9 9 13 12 7 3 2 4 14 14 24 16 22 20 26 25 18 14 8 9 4 3 8 11 9 8 7 6 7 7 6 6 8 5 4 3
19 17 8 8 11 11 10 17 16 17 13 5 9 4 12 9 10 18 21 21 24 23 25 28 21 15 16 10 8 10 8 10 11 8 6 7 6 4 3 7 6 5 3 5
9 16 13 13 18 8 8 14 14 7 6 2 11 5 8 6 8 22 30 24 20 19 25 26 25 19 20 16 15 14 11 8 11 10 8 7 7 5 3 4 3 6 5 6
20 25 21 15 10 14 15 16 12 4 4 12 8 1 2 7 12 15 24 23 22 22 16 27 27 22 22 19 18 18 17 9 11 11 11 9 9 7 6 6 4 6 6 11
13 18 10 6 14 6 11 17 18 11 19 9 1 7 13 15 2 19 26 27 22 15 18 21 24 27 23 22 23 22 20 16 11 11 12 12 11 9 6 7 5 3 1 8
9 14 5 5 10 10 14 16 16 13 5 3 3 8 14 5 6 5 14 13 23 23 15 14 24 27 26 23 23 25 21 18 12 13 13 13 12 12 10 8 6 5 4 5
11 9 7 5 8 10 15 13 12 15 6 8 4 3 11 18 16 12 11 3 8 26 18 12 8 33 26 24 24 22 21 18 13 15 15 13 12 12 13 12 10 8 9 5
8 12 17 11 14 7 11 18 10 8 5 10 9 5 8 15 15 12 16 18 16 18 17 11 5 18 25 22 23 21 15 13 3 7 10 10 10 10 12 13 12 13 11 11
7 3 12 14 6 9 6 8 10 7 7 12 9 3 9 12 7 7 7 6 7 12 19 8 11 9 22 23 23 19 13 12 9 11 11 10 9 11 11 10 10 12 13 13
5 4 10 8 5 19 13 19 14 9 7 10 20 30 17 3 4 5 8 0 4 11 11 11 22 17 13 19 27 20 15 14 14 16 15 11 14 13 14 14 13 12 11 13
4 14 17 15 4 2 10 15 5 4 8 9 33 19 12 10 8 6 7 4 7 11 18 11 13 13 20 18 22 27 24 22 21 19 21 20 17 17 18 19 17 16 17 15
6 13 18 12 1 7 12 5 12 10 8 18 22 17 13 11 4 5 6 5 3 9 10 18 9 5 18 27 31 31 29 28 28 28 23 22 29 28 24 23 24 22 21 21
9 14 15 15 16 15 1 13 12 16 11 16 16 19 17 11 2 5 8 9 6 3 11 15 13 13 19 21 29 32 32 37 29 28 28 22 22 29 29 27 26 26 25 25
11 13 12 14 16 6 6 15 5 9 7 7 14 17 10 1 9 10 14 11 8 6 5 5 11 17 20 21 23 25 26 30 31 19 34 26 27 25 27 29 28 29 29 31
8 10 12 10 13 14 8 7 2 5 10 7 6 3 2 4 2 10 8 8 10 12 16 16 13 10 12 20 23 25 25 26 21 17 14 32 23 29 26 27 29 31 33 32
9 6 10 9 7 4 4 6 7 6 8 7 7 4 2 5 5 5 12 12 15 20 20 21 19 18 12 12 13 14 14 13 11 5 3 24 25 23 24 29 31 35 37 38
1 4 8 12 10 3 3 9 7 4 7 11 13 15 16 15 13 10 10 14 18 16 15 12 16 18 17 15 18 20 21 20 17 15 14 17 23 26 30 34 38 37 39 44
3 5 6 7 14 4 7 5 6 5 10 13 14 13 12 16 12 11 15 14 11 8 8 9 11 12 18 19 14 15 17 18 17 15 19 20 23 26 30 26 27 33 38 38
5 5 2 6 4 1 5 6 8 8 9 9 10 8 11 11 3 7 10 9 6 5 0 5 13 12 14 10 7 9 10 10 10 13 16 19 22 27 28 32 29 20 12 13
5 10 11 9 6 3 8 7 7 11 15 13 8 6 7 8 8 7 8 2 5 13 18 15 6 7 12 13 9 7 5 9 12 15 16 14 15 20 25 20 18 16 11 6
10 9 9 8 9 13 12 15 15 15 20 18 15 13 7 10 9 11 12 15 14 14 11 6 5 6 9 11 10 11 10 13 16 13 9 12 14 12 13 20 17 13 9 5
18 13 13 15 11 12 12 16 16 16 17 10 5 7 9 12 13 13 13 17 13 10 11 11 6 7 7 9 13 11 12 10 9 9 12 14 17 20 11 10 8 4 6 6
Wind_Direction
254 256 260 306 306 310 305 299 239 172 172 97 288 231 173 191 212 183 180 189 185 191 198 216 192 189 213 228 224 219 234 242 199 198 208 206 139 101 131 73 110 113 69 32
271 252 263 298 287 297 303 294 133 147 153 78 128 243 207 186 204 207 190 190 193 191 196 210 183 192 219 238 256 231 231 228 205 202 212 192 164 133 149 97 108 61 53 41
252 257 255 267 296 286 310 195 97 147 168 105 102 82 196 202 205 209 200 197 197 203 202 210 204 209 229 251 227 227 221 216 206 198 216 214 210 202 171 111 125 162 76 59
266 246 243 275 298 294 24 9 344 248 186 139 134 186 176 232 197 216 191 208 201 205 219 219 215 213 236 246 190 227 217 220 215 214 217 179 184 163 188 205 154 149 142 97
251 237 240 252 283 292 314 307 317 291 293 161 198 188 339 199 229 189 194 209 211 207 222 219 219 236 250 246 196 259 252 233 222 214 196 170 174 193 225 208 189 156 121 94
260 266 282 245 250 280 298 289 293 288 213 79 162 336 38 344 256 233 218 208 209 203 216 225 225 243 241 243 260 261 287 239 238 233 214 186 196 218 250 160 165 160 148 117
243 240 232 250 246 259 275 280 289 334 71 167 151 74 71 24 302 259 236 215 199 217 203 223 219 222 235 238 246 263 274 262 229 243 242 208 212 215 181 180 168 142 156 148
281 264 233 219 243 245 277 304 291 325 146 137 182 321 103 73 341 228 199 198 190 203 222 208 220 222 238 243 250 258 275 282 235 229 237 227 209 217 203 196 190 204 211 170
313 358 156 203 224 245 282 283 306 341 111 84 110 224 205 150 133 152 168 174 182 193 218 213 205 224 236 242 250 264 272 274 245 241 230 233 215 216 202 206 204 212 211 167
295 325 195 228 222 238 245 278 309 321 127 82 285 261 252 17 303 157 226 177 185 198 221 209 203 209 227 240 254 266 263 266 269 258 242 234 229 220 222 216 203 213 218 165
280 285 313 225 265 229 233 257 254 271 175 143 173 325 323 358 5 56 75 11 188 198 197 235 219 200 220 234 244 262 250 257 268 251 238 237 236 235 230 232 232 232 250 248
303 281 303 283 270 249 261 250 290 301 95 121 106 65 96 64 36 43 39 39 62 150 189 187 233 202 211 224 236 257 259 266 275 272 246 242 245 247 248 241 242 245 247 256
282 265 329 324 348 24 297 288 310 346 104 141 122 176 85 82 83 48 41 53 73 176 199 217 227 216 209 228 233 247 263 280 282 282 297 285 274 276 275 273 261 248 246 244
322 292 315 46 159 283 331 327 278 301 57 91 136 142 143 233 110 94 97 118 171 166 159 202 230 225 204 220 238 243 255 279 282 283 293 283 275 281 285 276 277 278 265 257
353 315 330 341 347 225 334 335 34 11 357 103 155 149 133 157 93 69 64 40 256 228 206 224 224 205 225 226 199 225 231 237 241 252 277 285 273 271 264 258 259 263 269 270
306 320 342 327 285 335 267 322 302 324 40 113 135 124 132 126 156 72 34 28 305 243 240 229 231 198 198 202 210 218 222 227 235 241 237 257 268 266 261 253 252 254 255 258
321 325 340 323 340 343 241 37 56 50 54 125 117 131 162 180 26 7 11 348 325 271 230 236 233 217 205 208 219 225 232 229 203 233 251 265 259 271 265 257 252 249 249 253
276 287 297 302 321 347 3 341 312 16 41 76 115 139 166 83 352 346 339 347 338 332 306 276 250 232 234 236 244 252 254 270 287 295 277 262 264 258 264 268 266 260 261 265
253 259 275 285 294 292 322 83 320 309 79 58 97 105 18 41 329 306 312 313 313 322 320 315 313 288 255 248 253 259 265 270 279 286 285 251 231 257 254 256 258 265 268 268
237 242 242 262 283 295 182 211 166 172 112 135 133 122 198 156 219 257 285 287 298 312 321 317 313 302 293 283 266 253 245 258 292 306 172 196 229 245 256 264 265 265 263 261
174 265 257 234 239 187 169 215 218 219 178 216 226 241 251 265 271 275 277 301 313 317 312 307 305 313 294 284 281 286 287 289 287 263 244 236 250 266 268 263 268 265 269 270
160 320 315 282 237 168 205 239 247 232 223 238 256 264 271 270 257 271 306 336 316 328 320 317 324 305 298 311 312 301 300 304 309 298 288 280 274 271 272 279 283 285 288 282
254 245 334 14 326 274 232 225 180 219 243 256 273 280 307 322 342 318 332 345 352 360 219 329 339 337 342 324 316 308 297 293 296 287 284 282 278 275 272 274 276 265 289 287
216 241 262 266 283 179 202 269 293 251 243 254 254 246 255 235 231 235 227 223 284 295 302 306 307 8 2 3 355 320 288 273 282 281 283 295 304 281 262 259 257 239 294 254
250 272 261 255 229 262 266 281 275 246 269 281 275 245 228 234 249 235 251 264 268 286 285 304 309 346 349 352 357 345 313 293 293 298 285 288 282 278 275 273 287 260 268 251
234 236 269 275 247 255 251 263 281 283 289 276 231 181 210 230 242 251 270 258 265 290 294 289 284 311 328 335 345 351 343 324 322 332 300 288 282 284 265 260 239 188 187 206
Height
3185 3188 3185 3178 3178 3173 3171 3181 3184 3180 3184 3190 3196 3195 3191 3194 3194 3193 3193 3195 3198 3202 3206 3209 3212 3215 3215 3217 3219 3220 3220 3222 3223 3225 3227 3229 3230 3230 3231 3232 3233 3233 3234 3235
3185 3184 3183 3181 3176 3174 3173 3178 3174 3181 3181 3186 3195 3188 3186 3189 3200 3197 3198 3193 3195 3200 3202 3206 3210 3212 3213 3216 3217 3218 3220 3221 3223 3225 3227 3228 3228 3230 3231 3231 3233 3233 3234 3235
3183 3185 3184 3180 3177 3176 3175 3178 3174 3175 3186 3185 3183 3184 3187 3191 3195 3189 3203 3197 3194 3197 3199 3203 3207 3208 3211 3215 3218 3219 3221 3223 3225 3225 3226 3227 3228 3229 3230 3231 3233 3235 3235 3234
3182 3181 3182 3178 3177 3177 3178 3176 3176 3176 3181 3183 3183 3182 3185 3188 3193 3191 3194 3198 3197 3198 3200 3202 3205 3206 3209 3213 3218 3219 3221 3222 3223 3224 3225 3226 3228 3229 3230 3231 3233 3234 3233 3233
3177 3178 3179 3178 3178 3177 3177 3175 3176 3177 3177 3178 3180 3182 3183 3186 3188 3191 3195 3194 3196 3201 3199 3202 3204 3204 3207 3210 3215 3217 3219 3220 3222 3223 3225 3226 3227 3229 3230 3231 3233 3232 3232 3233
3173 3176 3176 3176 3176 3177 3175 3173 3173 3172 3170 3178 3182 3184 3182 3181 3181 3184 3188 3190 3196 3198 3200 3202 3204 3205 3205 3209 3212 3216 3218 3219 3221 3222 3224 3225 3227 3228 3229 3229 3230 3231 3231 3233
3171 3171 3171 3173 3174 3174 3175 3173 3171 3171 3172 3182 3185 3185 3183 3182 3180 3178 3182 3187 3190 3198 3202 3202 3204 3205 3203 3207 3211 3214 3217 3218 3220 3221 3222 3224 3225 3227 3228 3229 3229 3229 3231 3232
3172 3170 3168 3170 3172 3173 3172 3173 3170 3174 3175 3183 3188 3186 3181 3184 3184 3176 3177 3183 3190 3196 3199 3203 3204 3206 3204 3207 3209 3213 3215 3217 3217 3219 3220 3221 3224 3225 3227 3228 3228 3229 3229 3229
3169 3164 3164 3167 3169 3172 3171 3169 3171 3172 3175 3182 3187 3181 3178 3177 3183 3169 3168 3175 3186 3192 3197 3200 3204 3206 3204 3206 3208 3210 3213 3215 3216 3217 3219 3221 3222 3224 3226 3227 3227 3228 3228 3228
3169 3168 3167 3167 3168 3169 3169 3170 3169 3167 3179 3187 3184 3180 3178 3183 3187 3175 3173 3174 3183 3190 3194 3196 3200 3203 3204 3205 3207 3208 3211 3212 3214 3216 3217 3220 3221 3223 3225 3226 3227 3228 3228 3229
3169 3170 3169 3167 3166 3166 3167 3167 3168 3167 3167 3175 3182 3183 3185 3186 3185 3184 3181 3181 3179 3184 3189 3196 3197 3199 3202 3205 3206 3207 3208 3210 3212 3213 3216 3218 3221 3223 3225 3226 3227 3229 3229 3229
3169 3169 3168 3168 3167 3166 3167 3168 3168 3166 3169 3167 3174 3185 3182 3184 3189 3187 3184 3185 3186 3184 3188 3190 3195 3196 3198 3201 3203 3203 3206 3209 3212 3214 3216 3218 3219 3221 3223 3226 3228 3229 3230 3229
3170 3170 3170 3165 3165 3162 3167 3167 3167 3166 3166 3169 3175 3185 3185 3186 3190 3194 3190 3189 3189 3189 3188 3189 3192 3194 3196 3201 3204 3203 3203 3205 3209 3212 3214 3217 3218 3220 3222 3224 3226 3227 3228 3228
3170 3171 3173 3171 3171 3169 3169 3166 3166 3166 3166 3168 3171 3181 3184 3189 3189 3194 3195 3195 3192 3190 3185 3185 3188 3191 3199 3204 3208 3208 3205 3203 3204 3207 3210 3213 3216 3218 3221 3223 3224 3224 3225 3225
3170 3170 3171 3171 3170 3170 3170 3169 3165 3167 3166 3167 3173 3175 3180 3186 3187 3190 3190 3191 3192 3191 3189 3185 3183 3188 3189 3188 3193 3204 3203 3198 3199 3202 3205 3209 3212 3214 3217 3219 3220 3221 3221 3222
3169 3169 3169 3167 3169 3170 3171 3173 3179 3171 3168 3166 3174 3177 3181 3183 3186 3188 3189 3188 3188 3188 3189 3187 3182 3186 3188 3192 3196 3197 3195 3193 3193 3198 3200 3204 3207 3209 3211 3212 3213 3213 3214 3215
3170 3170 3170 3168 3168 3167 3168 3171 3172 3172 3170 3169 3171 3176 3181 3183 3184 3183 3183 3184 3184 3185 3186 3184 3185 3189 3189 3188 3188 3190 3190 3180 3173 3188 3196 3199 3199 3205 3208 3207 3207 3205 3205 3206
3170 3171 3171 3171 3170 3171 3171 3170 3171 3174 3174 3171 3171 3174 3177 3179 3179 3179 3179 3179 3181 3181 3182 3181 3181 3185 3185 3186 3186 3184 3186 3181 3174 3172 3192 3194 3197 3198 3201 3203 3202 3200 3200 3200
3169 3170 3170 3171 3171 3171 3171 3170 3171 3174 3176 3174 3175 3176 3178 3179 3177 3178 3179 3179 3178 3178 3177 3176 3177 3178 3180 3180 3180 3180 3180 3181 3179 3181 3181 3180 3186 3189 3189 3190 3191 3192 3193 3192
3167 3168 3170 3170 3171 3170 3170 3170 3171 3172 3173 3176 3176 3175 3175 3175 3175 3175 3174 3174 3173 3173 3172 3171 3171 3172 3174 3174 3175 3176 3176 3176 3175 3175 3173 3175 3177 3176 3178 3182 3185 3183 3183 3183
3165 3166 3166 3167 3169 3170 3169 3168 3170 3173 3178 3175 3175 3174 3172 3173 3173 3172 3172 3171 3169 3170 3169 3168 3167 3165 3167 3169 3169 3169 3169 3170 3170 3170 3169 3168 3169 3171 3171 3174 3174 3173 3172 3174
3166 3166 3166 3164 3165 3166 3166 3168 3171 3171 3170 3171 3172 3173 3173 3172 3172 3171 3171 3169 3167 3168 3169 3169 3168 3167 3164 3165 3166 3165 3164 3163 3163 3163 3162 3162 3164 3163 3163 3164 3164 3162 3162 3165
3166 3166 3166 3166 3166 3166 3166 3166 3167 3168 3168 3169 3169 3169 3168 3169 3170 3169 3168 3167 3167 3168 3168 3168 3168 3164 3163 3162 3162 3161 3159 3159 3159 3158 3157 3158 3158 3157 3157 3157 3160 3160 3157 3154
3163 3163 3164 3165 3165 3164 3163 3165 3166 3167 3166 3166 3166 3166 3167 3167 3168 3168 3167 3167 3166 3166 3167 3168 3169 3167 3164 3162 3161 3159 3158 3156 3154 3153 3152 3152 3153 3152 3150 3149 3149 3151 3152 3153
3161 3161 3161 3162 3163 3162 3162 3162 3163 3162 3161 3161 3162 3162 3164 3163 3164 3166 3166 3165 3165 3165 3167 3166 3166 3166 3164 3161 3160 3158 3155 3153 3152 3152 3151 3150 3148 3145 3144 3144 3145 3145 3148 3149
3157 3157 3158 3157 3159 3157 3158 3157 3159 3159 3158 3158 3158 3160 3160 3160 3162 3163 3164 3163 3163 3163 3163 3162 3163 3163 3161 3160 3158 3157 3154 3153 3153 3152 3151 3146 3144 3141 3142 3141 3141 3142 3145 3146